period_start,C,m1,H,J0,J1,J2,J3,J4,J5,JA,JB,JC,JD,JJ,JK,JN,#
2016-06-23 00:00:01,-0.00,0.19,0.00,23.78,28.50,31.35,14.37,46.48,1002.95,2032.96,3365.98,2936.05,3335.00,600.11,586.56,19.18,0000 0000 0000 0000 000000
2016-06-23 00:05:03,-0.00,0.19,0.00,23.79,28.50,31.34,14.21,46.44,1002.95,2032.97,3365.99,2936.03,3335.00,599.95,586.40,19.23,0000 0000 0000 0000 000000
2016-06-23 00:10:04,-0.00,0.19,0.00,23.78,28.50,31.36,14.29,46.53,1002.94,2032.93,3365.99,2936.01,3335.00,599.90,586.30,19.28,0000 0000 0000 0000 000000
2016-06-23 00:15:05,-0.01,0.19,0.00,23.54,28.50,31.39,14.31,46.52,1002.94,2032.80,3365.96,2936.01,3335.00,600.01,586.98,19.33,0000 0000 0000 0000 000000
2016-06-23 00:20:07,0.00,0.19,0.00,23.52,28.50,31.39,14.32,46.60,1002.91,2032.83,3365.95,2936.01,3334.99,599.92,586.82,19.38,0000 0000 0000 0000 000000
2016-06-23 00:25:08,-0.02,0.19,0.00,23.71,28.50,31.35,14.32,46.80,1002.70,2032.68,3365.98,2936.02,3334.99,600.23,586.69,19.43,0000 0000 0000 0000 000000
2016-06-23 00:30:10,-0.01,0.18,0.00,23.62,28.50,31.37,14.32,46.54,1002.93,2032.48,3365.93,2936.00,3334.96,600.08,586.87,19.48,0000 0000 0000 0000 000000
2016-06-23 00:35:11,-0.02,0.18,0.00,23.53,28.50,31.39,14.34,46.51,1002.94,2032.39,3365.95,2936.03,3334.98,600.02,587.10,19.53,0000 0000 0000 0000 000000
2016-06-23 00:40:12,0.01,0.18,0.00,23.71,28.50,31.35,14.29,46.45,1002.95,2032.36,3365.95,2936.01,3334.97,599.92,586.52,19.58,0000 0000 0000 0000 000000
2016-06-23 00:45:13,-0.02,0.18,0.00,23.76,28.50,31.35,14.36,46.56,1002.95,2032.24,3365.98,2936.01,3334.98,600.39,586.85,19.63,0000 0000 0000 0000 000000
2016-06-23 00:50:15,-0.00,0.18,0.00,23.75,28.50,31.36,14.28,46.46,1002.96,2032.10,3365.98,2936.00,3334.96,599.80,586.24,19.68,0000 0000 0000 0000 000000
2016-06-23 00:55:16,0.07,0.18,0.00,23.73,28.51,31.36,14.29,46.48,1002.95,2032.36,3365.38,2935.94,3334.73,599.83,586.37,19.73,0000 0000 0000 0000 000000
2016-06-23 01:00:17,-0.03,0.19,0.00,23.76,28.52,31.36,14.28,46.37,1002.97,2032.42,3365.19,2935.92,3334.58,599.85,586.28,19.78,0000 0000 0000 0000 000000
2016-06-23 01:05:18,-0.02,0.18,0.00,23.78,28.52,31.36,14.31,46.52,1002.97,2032.23,3365.49,2935.99,3334.74,600.06,586.57,19.83,0000 0000 0000 0000 000000
2016-06-23 01:10:20,0.05,0.18,0.00,23.79,28.52,31.36,14.35,46.48,1003.03,2032.51,3365.18,2935.98,3334.73,600.14,586.68,19.88,0000 0000 0000 0000 000000
2016-06-23 01:15:21,0.02,0.19,0.00,23.81,28.52,31.35,14.22,46.26,1003.26,2032.83,3365.02,2935.98,3334.71,599.72,586.36,19.93,0000 0000 0000 0000 000000
2016-06-23 01:20:22,-0.03,0.19,0.00,23.77,28.52,31.36,14.31,46.58,1003.41,2032.65,3365.14,2935.98,3334.39,600.37,587.11,19.98,0000 0000 0000 0000 000000
2016-06-23 01:25:24,0.01,0.19,0.00,23.40,28.52,31.43,14.19,46.41,1003.21,2032.39,3365.06,2935.97,3334.37,599.42,586.79,20.03,0000 0000 0000 0000 000000
2016-06-23 01:30:25,-0.04,0.18,0.00,23.46,28.52,31.42,14.33,46.67,1003.39,2032.35,3365.12,2935.97,3334.41,599.97,587.38,20.08,0000 0000 0000 0000 000000
2016-06-23 01:35:26,-0.01,0.18,0.00,23.68,28.52,31.36,14.34,46.39,1003.43,2032.12,3365.31,2935.98,3334.20,599.94,586.85,20.13,0000 0000 0000 0000 000000
2016-06-23 01:40:27,0.04,0.18,0.00,23.64,28.52,31.38,14.32,46.58,1003.34,2032.28,3365.03,2935.95,3334.09,600.02,586.82,20.18,0000 0000 0000 0000 000000
2016-06-23 01:45:29,0.04,0.19,0.00,23.71,28.52,31.34,14.32,46.44,1003.22,2032.80,3364.99,2935.93,3334.13,600.24,587.04,20.23,0000 0000 0000 0000 000000
2016-06-23 01:50:30,0.00,0.19,0.00,23.63,28.52,31.38,14.32,46.58,1003.34,2032.86,3364.99,2935.93,3334.12,600.09,587.06,20.28,0000 0000 0000 0000 000000
2016-06-23 01:55:31,0.01,0.19,0.00,23.68,28.51,31.37,14.27,46.55,1003.43,2032.93,3364.98,2935.64,3334.03,599.72,586.64,20.33,0000 0000 0000 0000 000000
2016-06-23 02:00:33,-0.00,0.19,0.00,23.81,28.52,31.35,14.36,46.58,1003.43,2032.92,3364.99,2935.55,3334.00,600.10,586.77,20.38,0000 0000 0000 0000 000000
2016-06-23 02:05:34,-0.01,0.19,0.00,23.82,28.52,31.34,14.26,46.57,1003.43,2032.82,3364.99,2935.66,3334.00,599.72,586.42,20.43,0000 0000 0000 0000 000000
2016-06-23 02:10:35,-0.03,0.19,0.00,23.82,28.52,31.34,14.35,46.69,1003.43,2032.51,3365.00,2935.78,3334.00,600.25,586.89,20.48,0000 0000 0000 0000 000000
2016-06-23 02:15:37,-0.02,0.19,0.00,23.79,28.52,31.36,14.31,46.81,1003.43,2032.27,3365.05,2935.83,3334.00,600.00,586.89,20.53,0000 0000 0000 0000 000000
2016-06-23 02:20:38,0.02,0.19,0.00,23.52,28.51,31.43,14.31,46.87,1003.45,2032.55,3364.99,2935.62,3333.99,599.95,587.23,20.58,0000 0000 0000 0000 000000
2016-06-23 02:25:39,0.01,0.19,0.00,23.40,28.50,31.44,14.35,46.80,1003.82,2032.55,3364.98,2935.61,3333.99,599.82,587.63,20.63,0000 0000 0000 0000 000000
2016-06-23 02:30:41,0.01,0.19,0.00,23.66,28.50,31.37,14.34,46.66,1003.87,2032.70,3364.99,2935.58,3333.99,600.03,587.25,20.68,0000 0000 0000 0000 000000
2016-06-23 02:35:42,0.00,0.19,0.00,23.70,28.50,31.36,14.24,46.50,1003.86,2032.82,3364.99,2935.66,3334.00,600.25,587.53,20.73,0000 0000 0000 0000 000000
2016-06-23 02:40:44,0.01,0.19,0.00,23.77,28.50,31.34,14.34,46.67,1003.82,2032.91,3364.98,2935.65,3334.00,600.27,587.28,20.78,0000 0000 0000 0000 000000
2016-06-23 02:45:45,0.01,0.19,0.00,23.80,28.50,31.33,14.30,46.19,1003.92,2032.95,3364.97,2935.48,3334.00,599.78,586.81,20.83,0000 0000 0000 0000 000000
2016-06-23 02:50:46,0.00,0.19,0.00,23.77,28.50,31.34,14.28,46.73,1003.93,2032.92,3364.93,2935.39,3334.00,600.42,587.59,20.88,0000 0000 0000 0000 000000
2016-06-23 02:55:47,-0.01,0.19,0.00,23.78,28.50,31.34,14.25,46.72,1003.93,2032.87,3364.97,2935.43,3334.00,599.73,586.82,20.93,0000 0000 0000 0000 000000
2016-06-23 03:00:49,-0.01,0.19,0.00,23.64,28.50,31.37,14.37,46.38,1003.93,2032.84,3364.99,2935.77,3334.00,600.15,587.52,20.98,0000 0000 0000 0000 000000
2016-06-23 03:05:50,-0.01,0.19,0.00,23.66,28.49,31.36,14.32,46.58,1003.93,2032.80,3364.99,2935.79,3334.00,600.06,587.38,21.03,0000 0000 0000 0000 000000
2016-06-23 03:10:52,-0.02,0.19,0.00,23.79,28.49,31.33,14.35,46.58,1003.94,2032.47,3365.01,2935.86,3334.00,600.09,587.20,21.08,0000 0000 0000 0000 000000
2016-06-23 03:15:53,-0.03,0.19,0.00,23.75,28.50,31.34,14.32,46.57,1003.94,2032.29,3365.00,2935.82,3334.00,600.12,587.15,21.13,0000 0000 0000 0000 000000
2016-06-23 03:20:55,0.04,0.19,0.00,23.52,28.48,31.39,14.37,46.93,1004.10,2032.38,3364.99,2935.67,3333.99,600.31,587.80,21.18,0000 0000 0000 0000 000000
2016-06-23 03:25:56,0.02,0.19,0.00,23.33,28.47,31.42,14.42,46.73,1004.32,2032.77,3364.99,2935.59,3333.99,600.16,588.21,21.23,0000 0000 0000 0000 000000
2016-06-23 03:30:57,-0.01,0.19,0.00,23.57,28.47,31.37,14.36,46.85,1004.32,2032.73,3365.00,2935.80,3333.99,599.61,587.35,21.28,0000 0000 0000 0000 000000
2016-06-23 03:35:59,-0.05,0.19,0.00,23.72,28.47,31.34,14.31,46.55,1004.33,2032.25,3365.01,2935.90,3333.99,600.24,587.53,21.33,0000 0000 0000 0000 000000
2016-06-23 03:41:00,-0.00,0.18,0.00,23.78,28.47,31.34,14.36,46.55,1004.34,2032.19,3365.02,2935.89,3333.99,600.51,587.77,21.38,0000 0000 0000 0000 000000
2016-06-23 03:46:01,0.00,0.19,0.00,23.79,28.48,31.36,14.30,46.58,1004.34,2032.11,3365.04,2935.50,3333.94,599.57,586.80,21.43,0000 0000 0000 0000 000000
2016-06-23 03:51:02,-0.00,0.19,0.00,23.82,28.50,31.34,14.24,46.42,1004.30,2032.06,3365.00,2935.20,3333.87,599.99,587.04,21.48,0000 0000 0000 0000 000000
2016-06-23 03:56:04,0.01,0.19,0.00,23.80,28.50,31.35,14.31,46.62,1004.16,2032.07,3364.97,2935.07,3333.85,599.41,586.57,21.53,0000 0000 0000 0000 000000
2016-06-23 04:01:05,0.00,0.19,0.00,23.80,28.50,31.35,14.38,46.63,1004.31,2032.11,3364.92,2935.03,3333.71,600.23,587.40,21.58,0000 0000 0000 0000 000000
2016-06-23 04:06:06,0.03,0.19,0.00,23.85,28.50,31.34,14.31,46.58,1004.34,2032.17,3364.53,2935.01,3333.32,599.97,587.06,21.63,0000 0000 0000 0000 000000
2016-06-23 04:11:07,-0.01,0.19,0.00,23.85,28.51,31.35,14.30,46.52,1004.41,2032.06,3364.60,2935.00,3333.04,599.91,587.00,21.68,0000 0000 0000 0000 000000
2016-06-23 04:16:08,0.00,0.19,0.00,23.84,28.52,31.34,14.26,46.58,1004.42,2032.01,3364.70,2935.00,3333.01,599.77,586.98,21.73,0000 0000 0000 0000 000000
2016-06-23 04:21:10,0.00,0.19,0.00,23.85,28.52,31.34,14.31,46.71,1004.41,2032.03,3364.62,2935.00,3333.06,599.75,587.04,21.78,0000 0000 0000 0000 000000
2016-06-23 04:26:11,-0.00,0.19,0.00,23.84,28.52,31.34,14.34,46.63,1004.42,2032.04,3364.72,2935.01,3333.03,600.14,587.38,21.83,0000 0000 0000 0000 000000
2016-06-23 04:31:12,-0.00,0.19,0.00,23.86,28.52,31.34,14.27,46.77,1004.42,2032.01,3364.87,2935.00,3333.03,599.98,587.14,21.88,0000 0000 0000 0000 000000
2016-06-23 04:36:14,0.00,0.19,0.00,23.86,28.52,31.35,14.22,46.51,1004.43,2032.01,3364.84,2935.00,3333.01,599.68,586.86,21.93,0000 0000 0000 0000 000000
2016-06-23 04:41:15,0.00,0.19,0.00,23.85,28.52,31.34,14.33,46.58,1004.47,2032.00,3364.80,2935.00,3333.00,600.29,587.50,21.99,0000 0000 0000 0000 000000
2016-06-23 04:46:16,0.00,0.19,0.00,23.86,28.52,31.35,14.33,46.67,1004.45,2032.00,3364.95,2934.99,3333.00,599.96,587.12,22.04,0000 0000 0000 0000 000000
2016-06-23 04:51:17,0.00,0.19,0.00,23.86,28.52,31.34,14.30,46.64,1004.45,2032.00,3364.88,2934.99,3333.00,600.00,587.22,22.09,0000 0000 0000 0000 000000
2016-06-23 04:56:19,0.00,0.19,0.00,23.90,28.52,31.33,14.32,46.76,1004.53,2032.00,3364.70,2935.00,3333.00,600.14,587.31,22.14,0000 0000 0000 0000 000000
2016-06-23 05:01:20,0.01,0.19,0.00,23.90,28.52,31.33,14.28,46.99,1004.88,2032.00,3364.09,2934.97,3333.00,599.64,587.06,22.19,0000 0000 0000 0000 000000
2016-06-23 05:06:21,0.00,0.19,0.00,23.91,28.52,31.33,14.34,46.80,1004.83,2032.01,3364.02,2934.88,3333.00,600.09,587.35,22.24,0000 0000 0000 0000 000000
2016-06-23 05:11:22,0.01,0.19,0.00,23.77,28.52,31.34,14.34,46.94,1004.91,2032.03,3363.98,2934.65,3332.99,600.16,587.80,22.29,0000 0000 0000 0000 000000
2016-06-23 05:16:24,0.01,0.19,0.00,23.84,28.52,31.35,14.36,46.77,1005.31,2032.07,3363.96,2934.45,3332.98,600.24,587.98,22.34,0000 0000 0000 0000 000000
2016-06-23 05:21:25,-0.00,0.19,0.00,23.86,28.52,31.33,14.40,46.53,1005.09,2032.23,3363.77,2934.50,3332.99,600.20,587.78,22.39,0000 0000 0000 0000 000000
2016-06-23 05:26:26,-0.00,0.19,0.00,23.86,28.52,31.33,14.32,46.49,1004.97,2032.19,3363.90,2934.68,3332.99,600.36,587.78,22.44,0000 0000 0000 0000 000000
2016-06-23 05:31:27,-0.00,0.19,0.00,23.84,28.51,31.35,14.36,46.83,1005.22,2032.23,3363.96,2934.76,3332.98,600.15,587.71,22.49,0000 0000 0000 0000 000000
2016-06-23 05:36:28,0.01,0.19,0.00,23.84,28.50,31.33,14.31,46.74,1005.40,2032.18,3363.92,2934.77,3332.99,599.76,587.56,22.54,0000 0000 0000 0000 000000
2016-06-23 05:41:30,0.04,0.19,0.00,23.83,28.50,31.34,14.37,46.61,1005.40,2032.52,3363.28,2934.44,3332.99,600.18,587.99,22.59,0000 0000 0000 0000 000000
2016-06-23 05:46:31,-0.03,0.19,0.00,23.50,28.49,31.38,14.33,46.58,1005.39,2032.50,3363.60,2934.62,3332.99,599.86,588.39,22.64,0000 0000 0000 0000 000000
2016-06-23 07:59:43,-3333.30,0.00,0.00,20.36,25.28,22.38,12.62,41.42,1005.88,1842.62,3212.92,2778.05,3157.96,530.88,526.61,0.00,0000 0000 0000 0000 000000
2016-06-23 08:04:44,0.00,0.00,0.00,20.20,25.00,23.65,14.30,46.23,1006.34,2045.64,3555.94,3075.38,3496.18,599.64,595.51,0.06,0000 0000 0000 0000 000000
2016-06-23 08:09:45,0.01,0.01,0.00,20.04,24.74,24.23,14.38,45.88,1006.38,2046.16,3555.21,3075.37,3495.79,599.82,595.74,0.11,0000 0000 0000 0000 000000
2016-06-23 08:14:46,0.01,0.01,0.00,19.91,24.52,24.76,14.38,45.78,1006.64,2046.95,3556.14,3076.44,3496.75,600.06,596.58,0.16,0000 0000 0000 0000 000000
2016-06-23 08:19:47,0.01,0.01,0.00,19.78,24.32,25.58,14.42,45.85,1006.85,2047.60,3557.17,3077.51,3498.01,599.80,596.63,0.21,0000 0000 0000 0000 000000
2016-06-23 08:24:49,0.02,0.01,0.00,19.67,24.16,25.99,14.53,45.86,1006.86,2048.57,3558.03,3078.65,3499.30,600.02,597.11,0.26,0000 0000 0000 0000 000000
2016-06-23 08:29:50,0.01,0.01,0.00,19.59,24.04,26.18,14.43,45.67,1006.99,2049.24,3558.78,3079.36,3500.15,599.75,597.01,0.31,0000 0000 0000 0000 000000
2016-06-23 08:34:51,0.05,0.01,0.00,19.52,23.94,26.41,14.54,45.77,1007.30,2049.98,3558.54,3079.36,3500.01,600.27,597.78,0.36,0000 0000 0000 0000 000000
2016-06-23 08:39:53,0.02,0.01,0.00,19.48,23.87,26.47,14.53,45.75,1007.34,2050.33,3559.20,3079.98,3500.49,600.00,597.71,0.41,0000 0000 0000 0000 000000
2016-06-23 08:44:54,-0.01,0.01,0.00,19.45,23.83,26.52,14.57,45.89,1007.34,2050.96,3559.96,3080.76,3501.21,600.51,598.27,0.46,0000 0000 0000 0000 000000
2016-06-23 08:49:55,0.01,0.01,0.00,19.45,23.80,26.63,14.54,45.99,1007.47,2051.10,3560.04,3081.01,3501.95,599.82,597.75,0.51,0000 0000 0000 0000 000000
2016-06-23 08:54:57,0.05,0.02,0.00,19.46,23.80,26.73,14.57,45.77,1007.78,2051.87,3560.32,3081.19,3501.99,600.04,598.04,0.56,0000 0000 0000 0000 000000
2016-06-23 08:59:58,-0.00,0.01,0.00,19.49,23.81,26.83,14.62,45.92,1007.82,2051.98,3560.92,3081.54,3501.99,600.09,598.05,0.61,0000 0000 0000 0000 000000
2016-06-23 09:04:59,-0.01,0.01,0.00,19.52,23.82,26.93,14.59,45.88,1007.83,2051.98,3560.99,3081.95,3502.00,600.18,597.96,0.66,0000 0000 0000 0000 000000
2016-06-23 09:10:00,0.00,0.01,0.00,19.59,23.86,27.06,14.58,45.70,1007.83,2051.99,3561.01,3081.99,3502.03,599.98,597.75,0.71,0000 0000 0000 0000 000000
2016-06-23 09:15:02,-0.00,0.01,0.00,19.65,23.89,27.15,14.57,45.83,1007.84,2051.98,3561.00,3081.98,3502.01,599.79,597.45,0.76,0000 0000 0000 0000 000000
2016-06-23 09:20:03,0.00,0.01,0.00,19.69,23.93,27.26,14.55,45.78,1008.13,2051.98,3560.98,3081.90,3502.00,599.96,597.66,0.81,0000 0000 0000 0000 000000
2016-06-23 09:25:04,0.02,0.01,0.00,19.75,23.98,27.35,14.57,45.75,1008.30,2051.98,3560.71,3081.50,3502.00,600.16,597.90,0.86,0000 0000 0000 0000 000000
2016-06-23 09:30:06,0.02,0.02,0.00,19.75,24.03,27.44,14.51,45.85,1008.32,2051.96,3560.03,3081.04,3501.70,599.35,597.10,0.91,0000 0000 0000 0000 000000
2016-06-23 09:35:07,0.01,0.02,0.00,19.78,24.09,27.52,14.57,45.81,1008.32,2051.94,3559.97,3081.00,3501.12,599.71,597.33,0.96,0000 0000 0000 0000 000000
2016-06-23 09:40:08,-0.01,0.02,0.00,19.78,24.15,27.62,14.57,45.77,1008.35,2051.71,3559.28,3080.86,3500.99,599.83,597.54,1.01,0000 0000 0000 0000 000000
2016-06-23 09:45:09,-0.02,0.02,0.00,19.80,24.21,27.72,14.62,45.71,1008.39,2051.20,3559.01,3080.18,3500.74,599.95,597.61,1.06,0000 0000 0000 0000 000000
2016-06-23 09:50:10,0.00,0.02,0.00,19.86,24.27,27.80,14.61,45.65,1008.56,2051.02,3558.96,3080.00,3500.06,600.00,597.66,1.11,0000 0000 0000 0000 000000
2016-06-23 09:55:11,0.00,0.02,0.00,19.94,24.33,27.90,14.59,45.79,1008.68,2051.00,3558.96,3079.99,3500.00,600.12,597.67,1.16,0000 0000 0000 0000 000000
2016-06-23 10:00:12,0.00,0.02,0.00,19.98,24.39,27.99,14.59,45.53,1008.79,2050.85,3558.56,3079.86,3499.73,600.01,597.54,1.21,0000 0000 0000 0000 000000
2016-06-23 10:05:14,-0.03,0.01,0.00,20.01,24.46,28.08,14.54,45.52,1008.80,2050.18,3558.03,3079.15,3499.04,599.74,597.25,1.26,0000 0000 0000 0000 000000
2016-06-23 10:10:15,0.00,0.01,0.00,20.02,24.52,28.15,14.57,45.54,1008.80,2050.00,3557.96,3079.00,3498.86,600.29,597.69,1.31,0000 0000 0000 0000 000000
2016-06-23 10:15:16,0.03,0.01,0.00,20.02,24.58,28.24,14.67,45.52,1008.81,2049.99,3557.27,3078.70,3498.09,600.08,597.57,1.36,0000 0000 0000 0000 000000
2016-06-23 10:20:18,0.01,0.02,0.00,20.04,24.64,28.34,14.62,45.61,1008.83,2049.90,3556.97,3078.03,3497.95,599.99,597.52,1.41,0000 0000 0000 0000 000000
2016-06-23 10:25:19,-0.03,0.01,0.00,20.05,24.71,28.43,14.60,45.76,1008.87,2049.30,3556.20,3077.87,3497.19,600.03,597.43,1.46,0000 0000 0000 0000 000000
2016-06-23 10:30:21,0.01,0.01,0.00,20.10,24.76,28.53,14.62,45.55,1008.85,2049.03,3555.98,3077.15,3496.98,600.18,597.57,1.51,0000 0000 0000 0000 000000
2016-06-23 10:35:22,0.02,0.02,0.00,20.12,24.82,28.59,14.63,45.53,1008.95,2049.00,3555.39,3077.00,3496.38,599.99,597.42,1.56,0000 0000 0000 0000 000000
2016-06-23 10:40:24,0.01,0.02,0.00,20.12,24.88,28.62,14.58,45.58,1008.96,2048.98,3555.01,3076.73,3496.00,599.87,597.28,1.61,0000 0000 0000 0000 000000
2016-06-23 10:45:25,-0.01,0.02,0.00,20.12,24.93,28.71,14.63,45.58,1009.01,2048.78,3554.97,3076.09,3495.84,600.04,597.37,1.66,0000 0000 0000 0000 000000
2016-06-23 10:50:26,-0.04,0.01,0.00,20.12,24.98,28.78,14.59,45.51,1009.09,2048.12,3554.63,3076.00,3495.10,600.01,597.28,1.71,0000 0000 0000 0000 000000
2016-06-23 10:55:27,0.01,0.01,0.00,20.07,25.02,28.83,14.53,45.66,1009.20,2048.01,3554.08,3075.87,3494.97,599.62,597.33,1.76,0000 0000 0000 0000 000000
2016-06-23 11:00:28,0.03,0.02,0.00,20.04,25.07,28.91,14.65,45.54,1009.28,2047.97,3553.88,3075.20,3494.30,600.15,597.91,1.81,0000 0000 0000 0000 000000
2016-06-23 11:05:30,0.01,0.02,0.00,20.04,25.11,28.99,14.62,45.50,1009.29,2047.94,3553.08,3075.00,3494.00,600.01,597.73,1.86,0000 0000 0000 0000 000000
2016-06-23 11:10:31,-0.05,0.02,0.00,20.02,25.16,29.05,14.66,45.58,1009.30,2047.54,3553.00,3074.94,3493.92,600.00,597.76,1.91,0000 0000 0000 0000 000000
2016-06-23 11:15:32,0.00,0.01,0.00,20.02,25.19,29.07,14.66,45.56,1009.29,2047.06,3552.97,3074.29,3493.17,599.95,597.73,1.96,0000 0000 0000 0000 000000
2016-06-23 11:20:34,0.01,0.01,0.00,20.03,25.23,29.10,14.62,45.64,1009.29,2047.01,3552.81,3074.02,3493.00,599.94,597.71,2.01,0000 0000 0000 0000 000000
2016-06-23 11:25:35,0.01,0.02,0.00,20.02,25.26,29.10,14.62,45.51,1009.29,2047.00,3552.10,3074.00,3492.97,599.92,597.65,2.06,0000 0000 0000 0000 000000
2016-06-23 11:30:36,0.01,0.02,0.00,20.02,25.29,29.07,14.61,45.54,1009.30,2047.00,3552.00,3073.92,3492.30,599.89,597.61,2.11,0000 0000 0000 0000 000000
2016-06-23 11:35:37,0.01,0.02,0.00,20.02,25.32,29.11,14.61,45.46,1009.31,2047.00,3551.99,3073.48,3492.03,599.84,597.61,2.16,0000 0000 0000 0000 000000
2016-06-23 11:40:39,0.01,0.02,0.00,20.03,25.35,29.08,14.64,45.63,1009.32,2047.00,3551.93,3073.06,3492.00,600.11,597.92,2.21,0000 0000 0000 0000 000000
2016-06-23 11:45:40,0.00,0.02,0.00,20.02,25.37,29.03,14.63,45.48,1009.33,2046.95,3551.28,3073.00,3491.95,600.09,597.87,2.26,0000 0000 0000 0000 000000
2016-06-23 11:50:41,-0.00,0.02,0.00,20.00,25.40,29.01,14.58,45.55,1009.35,2046.81,3551.02,3072.99,3491.60,599.50,597.34,2.31,0000 0000 0000 0000 000000
2016-06-23 11:55:43,-0.04,0.02,0.00,19.98,25.42,29.03,14.64,45.51,1009.51,2046.37,3550.98,3072.95,3491.09,599.87,597.80,2.36,0000 0000 0000 0000 000000
2016-06-23 12:00:44,0.00,0.02,0.00,19.97,25.44,29.04,14.57,45.48,1009.63,2046.09,3550.63,3072.59,3491.00,599.88,597.95,2.42,0000 0000 0000 0000 000000
2016-06-23 12:05:45,0.01,0.02,0.00,19.97,25.45,28.99,14.62,45.56,1009.72,2046.05,3550.42,3072.23,3491.00,600.14,598.16,2.47,0000 0000 0000 0000 000000
2016-06-23 12:10:47,0.00,0.02,0.00,19.93,25.47,28.96,14.63,45.65,1009.77,2046.01,3550.29,3072.08,3490.98,599.87,598.06,2.52,0000 0000 0000 0000 000000
2016-06-23 12:15:48,0.00,0.02,0.00,19.90,25.49,29.00,14.63,45.53,1009.77,2046.01,3550.04,3072.02,3490.94,599.93,598.16,2.57,0000 0000 0000 0000 000000
2016-06-23 12:20:49,0.00,0.02,0.00,19.90,25.50,28.98,14.61,45.45,1009.78,2046.00,3550.01,3072.00,3490.62,599.94,598.17,2.62,0000 0000 0000 0000 000000
2016-06-23 12:25:50,-0.00,0.02,0.00,19.87,25.51,29.03,14.66,45.49,1009.78,2046.00,3550.00,3072.00,3490.20,600.01,598.46,2.67,0000 0000 0000 0000 000000
2016-06-23 12:30:52,0.00,0.02,0.00,19.84,25.52,29.05,14.72,45.56,1009.78,2046.00,3549.99,3072.00,3490.06,600.12,598.39,2.72,0000 0000 0000 0000 000000
2016-06-23 12:35:53,0.00,0.02,0.00,19.82,25.52,29.09,14.63,45.41,1009.78,2046.00,3549.96,3071.98,3490.00,599.73,598.12,2.77,0000 0000 0000 0000 000000
2016-06-23 12:40:54,0.00,0.02,0.00,19.80,25.53,29.17,14.71,45.56,1009.75,2045.99,3549.80,3071.96,3490.00,600.44,598.91,2.82,0000 0000 0000 0000 000000
2016-06-23 12:45:55,0.01,0.02,0.00,19.80,25.54,29.15,14.68,45.43,1009.70,2045.99,3549.40,3071.91,3490.00,600.10,598.54,2.87,0000 0000 0000 0000 000000
2016-06-23 12:50:56,0.01,0.02,0.00,19.77,25.55,29.17,14.61,45.47,1009.66,2045.98,3549.09,3071.69,3489.99,599.81,598.32,2.92,0000 0000 0000 0000 000000
2016-06-23 12:55:57,0.03,0.02,0.00,19.75,25.55,29.14,14.60,45.55,1009.52,2045.99,3549.01,3071.30,3489.53,599.70,598.08,2.97,0000 0000 0000 0000 000000
2016-06-23 13:00:58,0.00,0.02,0.00,19.73,25.55,29.21,14.61,45.49,1009.53,2045.98,3548.99,3071.00,3489.03,600.07,598.45,3.02,0000 0000 0000 0000 000000
2016-06-23 13:06:00,0.00,0.02,0.00,19.73,25.55,29.26,14.62,45.73,1009.58,2045.97,3548.97,3071.00,3489.03,599.89,598.36,3.07,0000 0000 0000 0000 000000
2016-06-23 13:11:01,0.00,0.02,0.00,19.72,25.55,29.25,14.77,45.85,1009.67,2045.99,3548.88,3071.00,3489.00,600.29,598.88,3.12,0000 0000 0000 0000 000000
2016-06-23 13:16:02,0.01,0.02,0.00,19.69,25.55,29.20,14.71,45.74,1009.73,2045.99,3548.33,3071.00,3489.00,600.09,598.79,3.17,0000 0000 0000 0000 000000
2016-06-23 13:21:03,0.00,0.02,0.00,19.63,25.55,29.22,14.64,45.69,1009.69,2045.99,3548.01,3070.99,3489.00,599.84,598.62,3.22,0000 0000 0000 0000 000000
2016-06-23 13:26:05,0.00,0.02,0.00,19.61,25.54,29.24,14.61,45.72,1009.62,2045.99,3548.00,3070.98,3489.00,599.88,598.66,3.27,0000 0000 0000 0000 000000
2016-06-23 13:31:06,0.00,0.02,0.00,19.55,25.53,29.28,14.69,45.67,1009.43,2045.99,3548.01,3070.98,3489.00,600.03,598.83,3.32,0000 0000 0000 0000 000000
2016-06-23 13:36:07,0.00,0.02,0.00,19.54,25.52,29.28,14.68,45.74,1009.37,2045.99,3548.00,3070.98,3488.99,599.91,598.77,3.37,0000 0000 0000 0000 000000
2016-06-23 13:41:09,0.00,0.02,0.00,19.50,25.52,29.28,14.70,45.77,1009.48,2045.99,3548.00,3070.96,3488.98,600.07,598.91,3.42,0000 0000 0000 0000 000000
2016-06-23 13:46:10,0.04,0.02,0.00,19.53,25.50,29.25,14.74,45.67,1009.64,2045.99,3547.77,3070.17,3488.29,600.02,598.98,3.47,0000 0000 0000 0000 000000
2016-06-23 13:51:11,0.00,0.02,0.00,19.55,25.50,29.22,14.66,45.52,1009.76,2046.00,3547.52,3070.08,3488.25,599.88,598.98,3.52,0000 0000 0000 0000 000000
2016-06-23 13:56:12,0.00,0.02,0.00,19.50,25.47,29.25,14.69,45.42,1009.75,2046.01,3547.31,3070.10,3488.18,599.58,598.68,3.57,0000 0000 0000 0000 000000
2016-06-23 14:01:14,0.00,0.02,0.00,19.44,25.46,29.20,14.71,45.50,1009.73,2046.00,3547.15,3070.06,3488.10,599.90,599.02,3.62,0000 0000 0000 0000 000000
2016-06-23 14:06:15,-0.00,0.02,0.00,19.38,25.45,29.18,14.71,45.57,1009.73,2046.02,3547.29,3070.06,3488.10,599.80,599.16,3.67,0000 0000 0000 0000 000000
2016-06-23 14:11:16,-0.01,0.02,0.00,19.40,25.43,29.20,14.64,45.52,1009.74,2046.01,3547.33,3070.10,3488.20,599.86,599.10,3.72,0000 0000 0000 0000 000000
2016-06-23 14:16:17,-0.00,0.02,0.00,19.41,25.42,29.19,14.69,45.59,1009.76,2046.04,3547.58,3070.33,3488.27,600.01,599.28,3.77,0000 0000 0000 0000 000000
2016-06-23 14:21:18,0.01,0.02,0.00,19.41,25.40,29.17,14.72,45.58,1009.74,2046.03,3547.42,3070.27,3488.12,600.13,599.29,3.82,0000 0000 0000 0000 000000
2016-06-23 14:26:19,-0.00,0.02,0.00,19.37,25.39,29.16,14.70,45.77,1009.74,2046.07,3547.38,3070.38,3488.18,600.11,599.42,3.87,0000 0000 0000 0000 000000
2016-06-23 14:31:21,0.01,0.02,0.00,19.34,25.37,29.15,14.71,45.63,1009.73,2046.23,3547.38,3070.67,3488.38,600.01,599.42,3.92,0000 0000 0000 0000 000000
2016-06-23 14:36:22,0.02,0.02,0.00,19.31,25.36,29.10,14.70,45.56,1009.77,2046.40,3547.20,3070.68,3488.24,600.00,599.48,3.97,0000 0000 0000 0000 000000
2016-06-23 14:41:24,0.02,0.03,0.00,19.29,25.34,29.14,14.78,45.59,1009.76,2046.78,3547.14,3070.80,3488.38,600.23,599.69,4.02,0000 0000 0000 0000 000000
2016-06-23 14:46:25,0.01,0.03,0.00,19.25,25.32,29.12,14.78,45.69,1009.75,2046.92,3547.19,3070.87,3488.35,599.87,599.56,4.07,0000 0000 0000 0000 000000
2016-06-23 14:51:26,0.00,0.03,0.00,19.23,25.31,29.10,14.70,45.69,1009.76,2046.94,3547.08,3070.88,3488.40,600.01,599.68,4.12,0000 0000 0000 0000 000000
2016-06-23 14:56:28,-0.00,0.03,0.00,19.16,25.29,29.02,14.71,45.65,1009.77,2046.95,3547.08,3070.94,3488.60,600.07,599.91,4.17,0000 0000 0000 0000 000000
2016-06-23 15:01:29,0.00,0.03,0.00,19.17,25.27,29.03,14.79,45.74,1009.78,2046.98,3547.02,3070.95,3488.66,600.13,599.91,4.22,0000 0000 0000 0000 000000